GW1464 Weather Reports


Display with metric or nautical units.
time (UTC)temp
F
wind
direction
speed
MPH
gust
MPH
rain 1hr
in
rain 24hr
in
rain mn
in
humidity
%
barometer
mb
20260504184607 48 284 5.0 13.0 0.00 0.00 0.00 55 1011.8
20260504183058 48 335 5.0 10.0 0.00 0.00 0.00 57 1011.8
20260504181601 48 311 5.0 10.0 0.00 0.00 0.00 55 1011.8
20260504180057 48 349 4.0 16.0 0.00 0.00 0.00 55 1011.8
20260504174612 48 344 5.0 13.0 0.00 0.00 0.00 56 1011.9
20260504173100 48 311 7.0 16.0 0.00 0.00 0.00 56 1011.8
20260504171557 49 281 7.0 14.0 0.00 0.00 0.00 56 1011.8
20260504140110 45 337 10.0 20.0 0.00 0.00 0.00 58 1010.3
20260504110119 30 0 0.0 0.0 0.00 0.00 0.00 91 1009.0
20260504100105 31 0 0.0 0.0 0.00 0.00 0.00 89 1009.1
20260504090120 31 0 0.0 0.0 0.00 0.00 0.00 93 1009.3
20260504081558 29 0 0.0 0.0 0.00 0.00 0.00 93 1009.6
20260504044604 34 0 0.0 0.0 0.00 0.00 0.00 85 1010.9
20260504043057 35 0 0.0 4.0 0.00 0.00 0.00 84 1011.0
20260504041556 36 0 0.0 0.0 0.00 0.00 0.00 83 1011.2
20260504040107 36 237 0.0 2.0 0.00 0.00 0.00 81 1011.2
20260504034603 38 0 0.0 0.0 0.00 0.00 0.00 80 1011.4
20260504033114 39 0 0.0 0.0 0.00 0.00 0.00 76 1011.2
20260504031558 42 0 0.0 0.0 0.00 0.00 0.00 71 1011.4
20260504030055 45 0 0.0 0.0 0.00 0.00 0.00 68 1011.2
20260504024605 46 0 0.0 0.0 0.00 0.00 0.00 67 1011.1
20260504023055 47 0 0.0 2.0 0.00 0.00 0.00 64 1011.2
20260504021557 49 237 0.0 3.0 0.00 0.00 0.00 62 1011.1
20260504020057 50 237 1.0 2.0 0.00 0.00 0.00 59 1011.2
20260504014558 51 0 0.0 7.0 0.00 0.00 0.00 56 1011.1
20260504013058 53 242 1.0 6.0 0.00 0.00 0.00 53 1011.2
20260504011558 54 202 2.0 8.0 0.00 0.00 0.00 50 1011.4
20260504010101 54 0 0.0 8.0 0.00 0.00 0.00 49 1011.6
20260504004556 55 237 5.0 9.0 0.00 0.00 0.00 48 1011.8
20260504003058 56 206 2.0 9.0 0.00 0.00 0.00 47 1011.8
20260504001614 58 213 1.0 8.0 0.00 0.00 0.00 43 1011.9
20260504000059 58 11 3.0 9.0 0.00 0.00 0.00 42 1012.1
20260503234557 58 198 2.0 14.0 0.00 0.00 0.00 42 1012.4
20260503233057 59 340 3.0 7.0 0.00 0.00 0.00 42 1012.5
20260503231555 58 213 5.0 9.0 0.00 0.00 0.00 43 1012.7
20260503230058 58 223 4.0 14.0 0.00 0.00 0.00 44 1012.8
20260503224557 58 207 4.0 15.0 0.00 0.00 0.00 48 1012.9
20260503223056 57 211 3.0 11.0 0.00 0.00 0.00 47 1012.9
20260503221558 53 200 3.0 11.0 0.00 0.00 0.00 61 1013.3
20260503220112 50 346 3.0 9.0 0.00 0.00 0.00 68 1013.6
20260503214557 49 308 6.0 12.0 0.00 0.00 0.00 70 1014.2
20260503213100 47 274 4.0 15.0 0.00 0.00 0.00 74 1015.1
20260503211609 48 315 7.0 18.0 0.00 0.00 0.00 69 1015.1
20260503210057 55 329 3.0 9.0 0.00 0.00 0.00 51 1014.6
20260503204606 57 307 3.0 11.0 0.00 0.00 0.00 45 1014.2
20260503203059 57 208 3.0 8.0 0.00 0.00 0.00 47 1014.3
20260503201559 57 352 2.0 9.0 0.00 0.00 0.00 47 1014.5
20260503200059 57 226 2.0 9.0 0.00 0.00 0.00 48 1014.5
20260503194557 58 246 3.0 10.0 0.00 0.00 0.00 46 1014.7
20260503193121 58 189 4.0 15.0 0.00 0.00 0.00 47 1014.9
20260503191601 58 213 6.0 13.0 0.00 0.00 0.00 48 1015.2
20260503190059 56 186 4.0 12.0 0.00 0.00 0.00 50 1015.4